Content
SEND FEEDBACK

Daily
Averages
Monthly
Summary
Canada

VANCOUVER - CITY HALL, BRITISH COLUMBIA


Home > North America > Canada > British Columbia
Elevation: 283 feet     Latitude: 49 17N     Longitude: 123 07W

WEATHER
 
SELECT A DAY
Number of Records: 170,098;   Date Range: 4/23/95 - 8/27/14
 
SHARE

PRINT THIS DATA

[ ← Previous Day ]
WEATHER ALMANAC - MARCH 26, 2013
[ Next Day → ]
[ °C ]   °F
Weather ElementAverageHighLow
Temperature46.4 °F53.8 °F (3:00 pm)40.3 °F (3:00 am)
Dewpoint35.3 °F40.3 °F (4:00 pm)31.3 °F (4:00 am)
Humidity63.9 %73 % (2:00 am)50 % (5:00 pm)
Barometer30.00 in30.02 in (11:00 am)29.98 in (1:00 am)
Wind Speed1.7 mph3.5 mph (5:00 am)
Weather ElementAverage
Wind DirectionSSE (166.7 °)

Weather ElementTotal
Precipitation---
Heating Degree Days18 (Base 65)
Averaged from 27 records on March 26, 2013
WEATHER CONDITIONS BREAKOUT
WIND DIRECTION BREAKOUT
WEATHER BY HOUR - MARCH 26, 2013
[ °C ]   °F
Local TimeTemperatureDewpointHumidityBarometerVisibilityWind DirectionWind SpeedGust SpeedPrecipitationEventsConditions
1:00 AM42.8 °F32.9 °F68 %29.98 inNNE (30°)1.2 mph
2:00 AM41.5 °F33.6 °F73 %29.99 inNNW (330°)1.2 mph
3:00 AM40.3 °F32.0 °F72 %29.99 inNorth (10°)1.2 mph
4:00 AM41.2 °F31.3 °F68 %29.99 inNNE (20°)2.3 mph
5:00 AM42.0 °F32.0 °F57 %29.99 inNorth3.5 mph
5:00 AM42.4 °F31.8 °F66 %29.99 inNorth (360°)3.5 mph
6:00 AM42.6 °F31.6 °F65 %29.99 inNorth (360°)3.5 mph
7:00 AM40.3 °F31.3 °F70 %29.99 inCalm
8:00 AM42.1 °F34.0 °F73 %30.01 inNNW (340°)1.2 mph
9:00 AM44.8 °F35.8 °F71 %30.01 inSW (220°)1.2 mph
10:00 AM46.6 °F35.1 °F64 %30.01 inSouth (180°)1.2 mph
11:00 AM48.0 °F36.0 °F52 %30.02 inSouth (170°)1.2 mph
11:00 AM48.0 °F36.0 °F63 %30.02 inSouth (170°)1.2 mph
12:00 PM50.7 °F37.0 °F59 %30.02 inSW (230°)1.2 mph
1:00 PM49.6 °F37.8 °F64 %30.02 inSSW (210°)1.2 mph
2:00 PM52.3 °F36.0 °F54 %30.02 inSSW (200°)2.3 mph
3:00 PM53.8 °F38.5 °F56 %30.01 inWSW (250°)1.2 mph
4:00 PM52.2 °F40.3 °F64 %30.01 inSSW (210°)1.2 mph
5:00 PM52.0 °F39.0 °F50 %30.00 inWest (260°)1.2 mph
5:00 PM52.3 °F39.0 °F61 %30.00 inWest (260°)1.2 mph
6:00 PM51.8 °F34.3 °F51 %29.99 inWSW (250°)1.2 mph
7:00 PM48.9 °F36.0 °F61 %29.98 inCalm
8:00 PM46.9 °F37.6 °F70 %29.98 inNNE (20°)1.2 mph
9:00 PM45.7 °F36.1 °F69 %29.98 inNNE (20°)2.3 mph
10:00 PM45.1 °F35.2 °F68 %29.98 inNorth (360°)3.5 mph
11:00 PM44.0 °F36.0 °F64 %29.98 inNNE (20°)2.3 mph
11:00 PM43.9 °F35.8 °F73 %29.98 inNNE (20°)2.3 mph
Hourly data recorded from CWWA, located miles away from Vancouver - City Hall, British Columbia







STORIES FROM OUR PARTNERS